Hourly Data Report for September 12, 2017

All times are specified in Local Standard Time (LST). Add 1 hour to adjust for Daylight Saving Time where and when it is observed.

EUREKA CLIMATE
NUNAVUT

79°59'21.000" N
85°56'02.000" W
10.00 m
2401199
71613
NEK

Download Data

Hourly Data (September 2017)
Hourly Data Report for September 12, 2017
Temp Definition
°C
Dew Point Temp Definition
°C
Rel Hum Definition
%
Wind Dir Definition
10's deg

Wind Spd Definition
km/h
Visibility Definition
km
Stn Press Definition
kPa
Hmdx Definition


Wind Chill Definition


Weather Definition


TIME
00:00 -3.0 -3.9 94 15 18   100.78   -9 LegendNANA
01:00 -3.1 -4.0 94 16 15   100.82   -8 LegendNANA
02:00 -4.1 -5.5 90 18 13   100.90   -9 LegendNANA
03:00 -4.6 -5.5 93 18 18   100.95   -11 LegendNANA
04:00 -4.5 -5.7 91 18 16   100.99   -10 LegendNANA
05:00 -5.0 -6.6 88 15 14   101.03   -10 LegendNANA
06:00 -6.7 -8.0 90 12 17   101.10   -13 LegendNANA
07:00 -6.6 -8.1 89 13 19   101.14   -13 LegendNANA
08:00 -5.7 -7.5 87 13 16   101.18   -12 LegendNANA
09:00 -5.5 -7.6 85 14 17   101.19   -12 LegendNANA
10:00 -5.0 -7.0 86 13 20   101.20   -12 LegendNANA
11:00 -4.7 -6.6 87 13 24   101.22   -12 LegendNANA
12:00 -4.5 -6.4 87 12 20   101.26   -11 LegendNANA
13:00 -4.4 -6.4 86 14 15   101.31   -10 LegendNANA
14:00 -4.3 -6.3 86 13 18   101.34   -10 LegendNANA
15:00 -4.2 -6.2 86 13 21   101.37   -11 LegendNANA
16:00 -3.8 -5.9 85 12 15   101.42   -9 LegendNANA
17:00 -4.2 -5.4 92 13 16   101.46   -10 LegendNANA
18:00 -4.5 -5.9 90 11 8   101.49   -8 LegendNANA
19:00 -4.6 -6.3 88 12 18   101.51   -11 LegendNANA
20:00 -4.7 -6.2 89 12 18   101.54   -11 LegendNANA
21:00 -4.7 -5.9 91 13 16   101.59   -10 LegendNANA
22:00 -4.7 -5.7 92 12 16   101.59   -10 LegendNANA
23:00 -4.6 -5.8 92 12 20   101.61   -11 LegendNANA

Notes on Data Quality.

Legend

  • E = Estimated
  • M = Missing
  • NA = Not Available
  • ‡ = Partner data that is not subject to review by the National Climate Archives
Date modified: